When you browse on this site, cookies collect data to enhance your experience and personalize the content and advertising you see.
Visit our Privacy Policy to learn more. By continuing to use the site, you agree to this use of cookies and data.
  • în România
  • Lista ţărilor
  • Pe 7 zile
  • Temperatura apei
  • Hartă satelitară
  • Meteo pe hartă
  • Widget-uri
  • user-avatar
    Intrare

    Meteo pe oră la Lemnos

    Astăzi, 24 Mai, Vineri

    Timp Temperatura Precipitaţii Vânt Presiune Umiditate
    00:00 +21°C° 0 mm 1 m/s 753 mmHg 72%
    01:00 +21°C° 0 mm 1 m/s 753 mmHg 72%
    02:00 +20°C° 0 mm 1 m/s 753 mmHg 73%
    03:00 +20°C° 0.6 mm 1 m/s 753 mmHg 76%
    04:00 +19°C° 0.6 mm 2 m/s 753 mmHg 78%
    05:00 +19°C° 0.6 mm 2 m/s 753 mmHg 80%
    06:00 +18°C° 0.3 mm 3 m/s 753 mmHg 82%
    07:00 +18°C° 0.3 mm 3 m/s 753 mmHg 83%
    08:00 +18°C° 0 mm 3 m/s 753 mmHg 84%
    09:00 +19°C° 2.4 mm 3 m/s 753 mmHg 83%
    10:00 +19°C° 2.4 mm 3 m/s 754 mmHg 82%
    11:00 +19°C° 2.4 mm 3 m/s 754 mmHg 81%
    12:00 +19°C° 0.2 mm 3 m/s 754 mmHg 80%
    13:00 +19°C° 0.2 mm 2 m/s 754 mmHg 79%
    14:00 +19°C° 0.2 mm 2 m/s 754 mmHg 78%
    15:00 +20°C° 0 mm 1 m/s 753 mmHg 78%
    16:00 +20°C° 0 mm 1 m/s 753 mmHg 77%
    17:00 +19°C° 0 mm 0 m/s 753 mmHg 76%
    18:00 +21°C° 0 mm 1 m/s 753 mmHg 77%
    19:00 +21°C° 0 mm 1 m/s 753 mmHg 78%
    20:00 +20°C° 0 mm 2 m/s 753 mmHg 79%
    21:00 +19°C° 0.1 mm 3 m/s 754 mmHg 78%
    22:00 +19°C° 0.1 mm 3 m/s 754 mmHg 78%
    23:00 +19°C° 0.1 mm 4 m/s 754 mmHg 78%

    Mâine, 25 Mai, Sâmbătă

    Timp Temperatura Precipitaţii Vânt Presiune Umiditate
    00:00 +19°C° 0 mm 4 m/s 754 mmHg 78%
    01:00 +19°C° 0 mm 4 m/s 755 mmHg 79%
    02:00 +19°C° 0 mm 4 m/s 755 mmHg 80%
    03:00 +19°C° 0 mm 3 m/s 755 mmHg 80%
    04:00 +19°C° 0 mm 3 m/s 755 mmHg 81%
    05:00 +19°C° 0 mm 2 m/s 755 mmHg 81%
    06:00 +19°C° 0 mm 2 m/s 755 mmHg 82%
    07:00 +19°C° 0 mm 2 m/s 755 mmHg 82%
    08:00 +19°C° 0 mm 2 m/s 756 mmHg 83%
    09:00 +20°C° 0 mm 2 m/s 756 mmHg 81%
    10:00 +20°C° 0 mm 2 m/s 756 mmHg 79%
    11:00 +20°C° 0 mm 2 m/s 756 mmHg 77%
    12:00 +21°C° 0 mm 2 m/s 757 mmHg 74%
    13:00 +21°C° 0 mm 3 m/s 757 mmHg 71%
    14:00 +21°C° 0 mm 3 m/s 757 mmHg 69%
    15:00 +21°C° 0 mm 3 m/s 756 mmHg 69%
    16:00 +22°C° 0 mm 4 m/s 756 mmHg 70%
    17:00 +22°C° 0 mm 4 m/s 756 mmHg 70%
    18:00 +21°C° 0 mm 4 m/s 756 mmHg 71%
    19:00 +21°C° 0 mm 5 m/s 756 mmHg 72%
    20:00 +21°C° 0 mm 5 m/s 756 mmHg 73%
    21:00 +20°C° 0 mm 5 m/s 757 mmHg 74%
    22:00 +20°C° 0 mm 4 m/s 757 mmHg 75%
    23:00 +20°C° 0 mm 4 m/s 757 mmHg 76%

    Poimâine, 26 Mai, Duminică

    Timp Temperatura Precipitaţii Vânt Presiune Umiditate
    00:00 +20°C° 0 mm 4 m/s 757 mmHg 77%
    01:00 +20°C° 0 mm 3 m/s 757 mmHg 78%
    02:00 +20°C° 0 mm 2 m/s 757 mmHg 79%
    03:00 +20°C° 0 mm 2 m/s 757 mmHg 80%
    04:00 +21°C° 0 mm 1 m/s 757 mmHg 81%
    05:00 +21°C° 0 mm 1 m/s 757 mmHg 82%
    06:00 +21°C° 0 mm 1 m/s 758 mmHg 80%
    07:00 +20°C° 0 mm 2 m/s 758 mmHg 79%
    08:00 +20°C° 0 mm 2 m/s 758 mmHg 78%
    09:00 +20°C° 0 mm 2 m/s 758 mmHg 77%
    10:00 +21°C° 0 mm 2 m/s 758 mmHg 77%
    11:00 +21°C° 0 mm 2 m/s 759 mmHg 76%
    12:00 +21°C° 0 mm 2 m/s 758 mmHg 75%
    13:00 +22°C° 0 mm 1 m/s 758 mmHg 74%
    14:00 +23°C° 0 mm 1 m/s 758 mmHg 74%
    15:00 +23°C° 0 mm 1 m/s 758 mmHg 74%
    16:00 +23°C° 0 mm 1 m/s 758 mmHg 74%
    17:00 +21°C° 0 mm 0 m/s 758 mmHg 74%
    18:00 +23°C° 0 mm 1 m/s 758 mmHg 75%
    19:00 +23°C° 0 mm 1 m/s 758 mmHg 76%
    20:00 +22°C° 0 mm 1 m/s 758 mmHg 76%
    21:00 +21°C° 0 mm 2 m/s 758 mmHg 75%
    22:00 +21°C° 0 mm 2 m/s 758 mmHg 73%
    23:00 +21°C° 0 mm 3 m/s 758 mmHg 71%

    27 Mai, Luni

    Timp Temperatura Precipitaţii Vânt Presiune Umiditate
    00:00 +21°C° 0 mm 3 m/s 758 mmHg 71%
    01:00 +21°C° 0 mm 3 m/s 758 mmHg 71%
    02:00 +21°C° 0 mm 3 m/s 757 mmHg 70%
    03:00 +21°C° 0 mm 3 m/s 757 mmHg 70%
    04:00 +21°C° 0 mm 4 m/s 757 mmHg 70%
    05:00 +20°C° 0 mm 4 m/s 757 mmHg 70%
    06:00 +20°C° 0 mm 4 m/s 758 mmHg 70%
    07:00 +20°C° 0 mm 4 m/s 758 mmHg 71%
    08:00 +20°C° 0 mm 5 m/s 758 mmHg 71%
    09:00 +21°C° 0 mm 4 m/s 758 mmHg 71%
    10:00 +21°C° 0 mm 4 m/s 758 mmHg 70%
    11:00 +21°C° 0 mm 4 m/s 758 mmHg 70%
    12:00 +21°C° 0 mm 3 m/s 758 mmHg 71%
    13:00 +21°C° 0 mm 3 m/s 757 mmHg 72%
    14:00 +23°C° 0 mm 2 m/s 757 mmHg 72%
    15:00 +23°C° 0 mm 2 m/s 757 mmHg 72%
    16:00 +23°C° 0 mm 2 m/s 757 mmHg 71%
    17:00 +23°C° 0 mm 2 m/s 756 mmHg 70%
    18:00 +23°C° 0 mm 1 m/s 756 mmHg 71%
    19:00 +23°C° 0 mm 1 m/s 756 mmHg 71%
    20:00 +23°C° 0 mm 1 m/s 756 mmHg 71%
    21:00 +23°C° 0 mm 2 m/s 756 mmHg 70%
    22:00 +23°C° 0 mm 2 m/s 756 mmHg 69%
    23:00 +22°C° 0 mm 3 m/s 756 mmHg 68%

    28 Mai, Marţi

    Timp Temperatura Precipitaţii Vânt Presiune Umiditate
    00:00 +22°C° 0.1 mm 3 m/s 756 mmHg 68%
    01:00 +21°C° 0.1 mm 3 m/s 756 mmHg 68%
    02:00 +21°C° 0.1 mm 4 m/s 755 mmHg 68%
    03:00 +21°C° 0 mm 4 m/s 755 mmHg 71%
    04:00 +21°C° 0 mm 3 m/s 755 mmHg 73%
    05:00 +21°C° 0 mm 3 m/s 755 mmHg 76%
    06:00 +21°C° 0 mm 4 m/s 755 mmHg 76%
    07:00 +21°C° 0 mm 4 m/s 756 mmHg 76%
    08:00 +21°C° 0 mm 4 m/s 756 mmHg 76%
    09:00 +21°C° 0 mm 4 m/s 756 mmHg 75%
    10:00 +21°C° 0 mm 5 m/s 756 mmHg 73%
    11:00 +22°C° 0 mm 5 m/s 756 mmHg 72%
    12:00 +22°C° 0 mm 5 m/s 755 mmHg 72%
    13:00 +22°C° 0 mm 5 m/s 755 mmHg 72%
    14:00 +22°C° 0 mm 5 m/s 755 mmHg 72%
    15:00 +22°C° 0 mm 5 m/s 755 mmHg 72%
    16:00 +22°C° 0 mm 5 m/s 755 mmHg 73%
    17:00 +22°C° 0 mm 5 m/s 754 mmHg 73%
    18:00 +22°C° 0 mm 5 m/s 754 mmHg 74%
    19:00 +21°C° 0 mm 5 m/s 755 mmHg 75%
    20:00 +21°C° 0 mm 5 m/s 755 mmHg 76%
    21:00 +21°C° 0 mm 5 m/s 755 mmHg 78%
    22:00 +21°C° 0 mm 5 m/s 755 mmHg 80%
    23:00 +20°C° 0 mm 5 m/s 755 mmHg 83%

    29 Mai, Miercuri

    Timp Temperatura Precipitaţii Vânt Presiune Umiditate
    00:00 +20°C° 0 mm 5 m/s 755 mmHg 83%
    01:00 +20°C° 0 mm 4 m/s 755 mmHg 83%
    02:00 +20°C° 0 mm 3 m/s 755 mmHg 84%
    03:00 +20°C° 0 mm 3 m/s 755 mmHg 83%
    04:00 +20°C° 0 mm 3 m/s 755 mmHg 83%
    05:00 +20°C° 0 mm 2 m/s 755 mmHg 83%
    06:00 +21°C° 0 mm 2 m/s 756 mmHg 80%
    07:00 +21°C° 0 mm 3 m/s 756 mmHg 78%
    08:00 +21°C° 0 mm 3 m/s 756 mmHg 75%
    09:00 +21°C° 0 mm 3 m/s 756 mmHg 74%
    10:00 +21°C° 0 mm 3 m/s 757 mmHg 73%
    11:00 +22°C° 0 mm 3 m/s 757 mmHg 73%
    12:00 +22°C° 0 mm 3 m/s 757 mmHg 73%
    13:00 +22°C° 0 mm 3 m/s 757 mmHg 73%
    14:00 +23°C° 0 mm 2 m/s 757 mmHg 73%
    15:00 +23°C° 0 mm 2 m/s 757 mmHg 72%
    16:00 +22°C° 0 mm 3 m/s 757 mmHg 71%
    17:00 +24°C° 0 mm 3 m/s 756 mmHg 71%
    18:00 +22°C° 0 mm 3 m/s 757 mmHg 70%
    19:00 +22°C° 0 mm 3 m/s 757 mmHg 70%
    20:00 +22°C° 0 mm 3 m/s 757 mmHg 69%
    21:00 +22°C° 0 mm 3 m/s 757 mmHg 69%
    22:00 +22°C° 0 mm 3 m/s 757 mmHg 69%
    23:00 +21°C° 0 mm 4 m/s 758 mmHg 69%
    Arată mai mult